Location: Newark
(49.8969°N, 3.3422°E)
Time: 13:46:18
(UTC+00:00)

Tiros 1 - Pass Details

Date: 11 May 2021
Orbit: 630 x 664 km, 48.4° (Epoch: 11 June)

Event Time Altitude Azimuth Distance (km) Brightness Sun altitude
Exits shadow 00:16:09 12° 112° (ESE) 1,928 9.4 -21.8°
Drops below altitude 10° 00:16:53 10° 104° (ESE) 2,067 9.7 -21.8°
Sets 00:20:09 0° 81° (E) 2,976 10.8 -21.7°
